SCP
0 0 -0 0 0 0 0 0 0 0 0 0 0 0 0 0 0 0 0 0 0 0 0 0 0 0 0 0 0 0 0 0 -0 0 0 1 3 3 3 5 4 4 2 1
0 -0 0 0 0 0 0 0 0 0 0 0 0 0 0 0 0 0 0 0 0 0 0 0 0 0 0 0 0 0 0 0 0 0 0 0 2 2 4 5 5 5 4 2
0 0 0 0 0 0 0 0 0 0 0 0 0 0 0 0 0 0 0 0 0 0 0 0 0 0 0 0 0 0 0 0 0 0 0 0 2 3 3 6 7 6 5 3
0 0 0 0 0 0 0 0 0 0 0 0 0 0 0 0 0 0 0 0 0 0 0 0 0 0 0 0 0 0 0 0 0 0 1 1 1 2 0 6 11 7 6 3
0 0 0 0 0 0 0 0 0 0 0 0 0 0 0 0 0 0 0 0 0 0 0 0 0 0 0 0 0 0 0 0 -0 0 0 0 0 3 0 1 3 6 6 4
0 0 0 -0 0 0 0 -0 0 0 0 0 0 0 0 0 0 0 0 0 0 0 0 0 0 0 0 0 0 0 0 0 -0 -0 0 0 0 3 1 7 3 5 5 6
0 0 0 0 -0 0 0 0 0 0 0 0 0 0 0 0 0 0 0 0 0 0 0 0 0 0 0 0 0 0 0 0 0 -0 -0 0 0 3 3 1 4 5 7 5
0 0 0 0 0 0 0 0 0 0 0 0 0 0 0 0 0 0 0 0 0 0 0 0 0 0 0 0 0 0 0 0 -0 0 -0 0 0 0 3 3 6 5 5 5
0 0 0 0 0 0 0 0 0 0 0 0 0 0 0 0 0 0 0 0 0 0 0 0 0 0 0 0 0 0 0 0 0 0 -0 0 0 0 0 2 1 3 4 4
0 0 0 0 0 0 0 0 0 0 0 0 0 0 0 0 0 0 0 0 0 0 0 0 0 0 0 0 0 0 0 0 0 0 0 0 0 0 0 3 2 1 2 3
0 0 0 0 0 0 0 0 0 0 0 0 0 0 0 0 0 0 0 0 0 0 0 0 0 0 0 0 0 0 0 0 0 0 0 0 0 0 0 0 5 1 1 1
0 0 0 0 0 0 0 0 0 0 0 0 0 0 0 0 0 0 0 0 0 0 0 0 0 0 0 0 -0 0 0 0 0 0 0 0 0 0 0 0 0 1 1 0
0 0 0 0 0 0 0 0 0 0 0 0 0 0 0 0 0 0 0 0 0 0 0 0 0 0 0 0 0 -0 0 0 0 0 0 0 0 0 0 0 0 1 0 1
0 0 0 0 0 0 0 0 0 0 0 0 0 0 0 0 0 0 0 0 0 0 0 0 0 0 0 0 0 -0 0 0 0 0 0 0 0 0 0 0 0 0 0 0
0 0 0 0 0 0 0 0 0 0 0 0 0 0 0 0 0 0 0 0 0 0 0 0 0 0 0 0 0 0 -0 0 0 0 0 0 0 0 0 0 0 0 0 0
0 0 0 0 0 0 -0 -0 0 -0 0 0 0 0 0 0 0 0 0 0 0 0 0 0 0 0 0 0 0 0 0 -0 0 0 0 0 0 0 0 0 0 0 0 0
0 0 0 0 0 0 0 0 -0 0 0 0 0 0 0 0 0 0 0 0 0 0 0 0 0 0 0 0 0 0 0 0 0 0 0 0 0 0 0 0 0 0 1 0
0 0 0 0 0 0 0 0 0 0 0 0 0 0 0 0 0 0 0 0 0 0 0 0 0 0 0 0 0 0 0 0 0 0 0 0 0 0 0 0 0 0 1 1
0 0 0 0 0 0 0 0 0 0 0 0 0 0 0 0 0 0 0 0 0 0 0 0 0 0 0 0 0 0 0 0 0 0 0 0 0 0 0 0 0 0 0 2
0 0 0 0 0 0 0 0 0 0 0 0 0 0 0 0 0 0 0 0 0 0 0 0 0 0 0 0 0 0 0 0 0 0 0 0 0 0 0 0 0 1 1 2
0 0 0 0 0 0 0 0 0 0 0 0 0 0 0 0 0 0 0 0 0 0 0 0 0 0 0 0 0 0 0 0 0 0 0 0 0 0 0 0 0 1 1 3
0 0 0 0 0 0 0 0 0 0 0 0 0 0 0 0 0 0 0 0 0 0 0 0 0 0 0 0 0 0 0 0 0 0 0 0 0 0 0 0 0 0 1 2
0 0 0 0 0 0 0 0 0 0 0 0 0 0 0 0 0 0 0 0 0 0 0 0 0 0 0 0 0 0 0 0 -0 0 0 0 0 0 0 0 1 1 1 1
0 0 0 0 0 0 0 0 0 0 0 0 0 0 0 0 0 0 0 0 0 0 0 0 0 0 0 0 0 0 0 0 0 -0 0 0 0 0 1 1 1 1 1 1
0 0 0 0 0 0 0 0 0 0 0 0 0 0 0 0 0 0 0 0 0 0 0 0 0 0 0 0 0 0 0 0 0 -0 0 0 0 0 0 0 0 0 0 0
0 0 0 0 0 0 0 0 0 0 0 0 0 0 0 0 0 0 0 0 0 0 0 0 0 0 0 0 0 0 0 0 -0 -0 0 0 0 0 0 0 0 0 -0 -0
Wind_Speed_500mb
7 17 27 5 6 18 22 25 27 25 17 18 30 38 39 31 23 10 9 14 19 28 33 35 39 40 42 44 48 50 50 53 57 61 58 65 80 99 93 89 86 83 82 78
20 27 12 1 14 20 23 26 29 21 9 26 37 37 38 22 16 10 11 12 19 29 34 38 42 44 45 47 49 48 49 52 55 55 60 60 80 97 116 106 99 94 86 82
21 13 13 10 21 22 25 23 23 26 32 43 36 44 24 17 17 21 17 12 22 29 37 44 50 50 48 48 49 50 50 52 55 59 62 73 78 98 101 113 96 96 95 86
21 15 12 19 24 13 23 6 21 29 24 18 13 15 24 36 29 28 20 15 22 29 39 52 54 53 54 51 50 50 51 51 51 56 52 60 86 98 97 116 98 93 94 88
9 14 21 23 21 3 21 21 31 31 32 29 35 18 29 23 29 29 7 13 21 30 42 58 57 55 55 52 51 50 51 49 49 54 63 64 83 103 89 96 101 90 87 88
30 2 15 24 6 20 23 32 38 32 19 17 29 20 18 9 7 5 5 15 25 38 53 63 55 56 55 53 50 53 53 49 53 52 64 63 82 95 86 77 98 88 81 85
28 26 17 13 23 24 23 25 9 9 17 18 11 15 31 15 15 5 8 18 31 47 56 55 58 62 57 51 52 54 52 53 53 55 68 61 66 85 93 87 95 90 85 77
17 22 29 22 19 14 14 11 9 10 14 23 37 18 9 12 15 6 8 19 36 49 58 60 61 60 58 52 53 55 56 54 51 58 64 60 47 72 93 96 68 72 82 84
9 13 19 10 12 11 12 11 18 12 28 21 21 28 27 25 11 19 24 31 45 55 58 61 62 56 50 53 55 55 57 55 52 52 56 55 52 43 69 94 88 64 79 89
5 11 22 16 13 21 21 12 7 7 10 16 20 33 17 11 10 19 25 43 47 56 57 58 58 58 58 51 53 53 54 55 52 48 49 55 48 39 60 53 65 97 76 78
6 9 17 15 23 20 15 19 13 7 14 10 15 10 8 16 13 21 29 46 43 57 56 57 61 62 58 55 52 55 52 51 51 47 48 51 47 41 43 61 64 82 79 71
16 13 15 26 9 6 21 26 24 11 10 15 18 28 23 5 8 30 36 47 51 55 56 55 58 62 57 52 54 52 51 50 49 49 48 46 47 40 43 56 53 63 65 75
17 12 8 13 13 15 18 24 25 14 16 31 22 16 11 18 28 38 48 43 50 55 54 56 59 60 58 54 56 52 51 51 50 49 46 47 43 42 38 47 52 50 60 71
6 16 19 15 9 19 16 25 33 31 23 32 41 49 46 46 43 42 54 48 51 54 53 54 61 58 59 58 55 52 51 52 51 50 48 43 44 42 38 42 52 37 64 77
25 19 28 36 38 37 38 40 40 44 46 41 48 53 51 47 36 39 45 50 50 53 53 56 62 59 61 60 55 52 53 53 50 50 49 46 43 40 41 45 47 52 47 58
31 19 21 34 35 37 46 44 47 50 49 52 52 51 38 27 23 40 46 46 49 50 50 56 59 58 63 62 61 56 54 53 52 50 50 47 41 39 34 45 44 36 34 68
35 27 20 29 27 30 29 35 39 44 40 35 37 36 30 34 33 37 42 44 40 43 51 57 58 56 66 65 61 59 56 54 55 51 49 46 43 37 33 32 44 25 56 57
31 35 18 18 23 25 10 2 9 17 23 25 29 31 30 31 35 37 40 27 35 46 52 54 54 60 65 62 66 62 56 55 52 52 48 43 40 38 32 29 33 28 27 37
35 29 8 11 19 34 32 16 27 6 16 24 25 19 23 29 31 30 3 22 41 48 49 50 50 61 63 63 62 62 62 53 51 49 48 41 37 38 31 25 22 29 19 55
42 35 19 17 11 12 3 7 9 4 17 12 4 14 21 21 19 19 35 40 43 44 46 45 48 63 65 61 60 61 62 59 54 49 48 42 37 36 35 23 18 24 20 24
24 27 32 27 20 21 22 7 14 8 4 5 18 27 26 18 20 34 37 41 40 44 47 40 51 65 62 59 58 60 60 59 62 55 49 45 37 35 33 27 14 15 19 4
23 18 14 24 18 30 28 26 13 4 7 14 23 27 26 24 24 27 33 36 39 43 44 43 56 64 62 60 59 62 62 60 59 45 40 34 31 30 27 20 18 11 10 8
17 20 18 21 15 16 16 24 37 11 14 20 24 25 22 20 22 28 32 34 36 39 38 39 56 63 62 63 59 60 60 59 54 32 22 11 17 23 24 25 14 17 15 3
32 32 23 20 23 30 21 34 33 28 29 28 24 21 17 19 23 27 29 32 35 33 36 37 55 61 63 65 62 57 58 56 44 27 23 6 9 13 8 12 11 28 22 20
26 19 28 33 28 24 27 28 35 36 29 22 18 15 16 18 20 23 28 30 31 30 32 33 50 58 60 61 64 59 56 54 45 33 22 19 16 19 16 23 20 29 28 35
32 26 23 16 19 21 30 18 16 17 21 18 16 14 13 14 18 21 25 27 25 28 29 31 44 54 57 59 62 61 54 51 46 39 28 23 17 17 10 12 10 43 31 28
Wind_Direction_500mb
245 273 235 124 20 304 289 274 273 272 292 299 270 285 281 278 272 237 285 318 328 329 329 328 323 314 305 301 302 302 296 294 291 283 274 268 252 238 216 213 210 212 222 208
236 238 88 18 285 275 265 268 270 301 232 292 288 277 277 252 215 230 264 298 318 321 324 324 324 323 309 299 298 301 300 296 293 284 276 264 259 248 223 207 209 205 213 207
268 15 98 254 273 250 255 274 295 306 304 278 268 273 216 182 215 211 246 288 315 322 324 323 322 318 314 303 297 294 299 295 296 289 276 268 255 253 241 208 207 204 210 210
266 148 221 270 264 256 276 50 295 291 296 295 311 297 203 197 201 226 221 276 319 321 322 323 318 316 313 306 298 294 296 299 298 297 290 273 261 246 240 211 202 203 207 208
66 214 252 259 261 141 276 323 290 281 277 281 268 236 271 161 223 229 195 311 307 315 322 325 319 314 310 305 300 296 293 302 299 299 287 271 252 252 243 225 196 200 202 211
268 34 269 257 294 249 290 279 272 257 256 261 254 239 281 288 220 43 292 292 308 315 320 321 317 314 308 307 305 303 295 296 303 301 301 277 256 249 239 223 213 203 205 209
199 223 209 241 256 216 234 281 308 259 196 235 117 256 255 266 176 257 308 304 317 313 323 321 318 316 312 307 309 306 302 300 301 312 306 298 262 246 245 232 213 195 206 206
247 188 194 186 248 316 293 305 277 269 271 303 325 272 262 69 105 176 260 286 305 321 324 320 318 316 312 313 311 310 310 307 310 314 313 308 282 240 245 242 223 200 203 209
260 224 141 206 234 245 129 261 29 304 266 253 239 254 198 135 183 229 256 312 320 330 321 323 322 318 319 314 313 311 311 310 311 312 314 317 309 257 235 244 240 221 218 220
155 264 191 161 229 232 255 25 234 214 277 293 293 301 303 169 255 357 323 326 323 323 324 325 324 323 319 317 313 312 308 308 307 310 313 315 317 284 236 232 246 236 220 215
192 208 149 175 213 234 179 226 227 270 269 279 302 278 74 323 349 311 323 316 327 325 322 325 326 323 319 320 315 313 310 308 307 309 311 316 321 302 251 230 227 240 237 224
205 196 251 233 148 261 272 268 186 221 246 250 288 278 289 333 262 307 311 322 331 321 323 326 323 325 323 318 320 314 311 310 308 307 307 312 312 312 271 243 234 234 232 239
156 219 252 211 193 213 238 228 240 230 264 258 276 265 144 226 266 297 324 334 325 320 325 325 327 323 323 320 320 317 315 312 307 305 303 306 309 308 291 263 245 242 240 239
163 233 231 245 300 331 249 226 232 211 233 256 255 274 284 299 310 324 318 324 318 318 323 327 326 323 322 322 318 317 315 315 310 304 300 296 299 302 304 282 253 252 249 247
217 246 249 257 263 269 267 261 257 250 231 236 267 279 286 286 304 307 313 313 319 318 322 325 323 321 324 322 319 318 316 315 314 306 297 293 293 299 306 297 273 236 247 243
203 254 256 270 272 270 270 266 262 256 256 262 267 273 291 340 306 308 312 322 314 317 322 321 321 322 324 322 318 316 317 315 314 306 297 293 287 289 293 299 288 252 244 216
221 230 250 271 273 279 275 265 269 258 253 259 269 289 320 304 304 319 323 314 317 321 319 319 323 324 323 319 317 314 315 314 310 304 297 290 287 281 283 289 295 278 229 220
213 227 224 269 299 261 231 220 302 302 278 277 273 283 295 304 317 321 307 321 319 319 320 320 321 323 323 318 317 317 316 313 310 302 297 287 279 273 277 283 295 293 263 220
219 237 206 230 249 281 301 291 219 263 279 279 273 286 310 309 319 300 344 327 322 319 317 319 319 324 322 322 320 317 318 314 310 302 295 286 273 267 270 267 283 284 281 217
215 213 218 230 240 244 270 122 71 314 273 145 161 298 301 314 293 296 319 320 317 317 319 322 322 325 332 326 325 320 320 319 316 306 292 284 264 257 254 258 268 299 328 222
203 199 212 224 237 260 246 213 146 240 57 154 310 311 303 297 283 297 308 312 313 318 321 323 328 332 336 332 331 325 323 325 317 308 292 277 245 250 248 238 225 281 293 34
175 184 208 230 229 248 232 166 206 239 239 299 306 308 303 301 297 301 303 310 318 321 322 323 328 336 340 341 336 332 335 332 328 318 296 267 231 241 233 228 234 240 283 306
194 203 194 197 210 238 230 187 219 241 281 298 303 307 301 294 297 299 313 316 320 321 322 323 332 338 343 346 344 340 340 342 339 334 327 247 216 229 224 188 215 231 271 308
222 191 226 222 234 247 210 227 247 251 270 286 291 288 284 287 296 309 314 320 320 322 322 326 336 343 345 348 349 349 347 352 351 3 12 148 190 196 199 205 211 229 268 293
235 202 227 243 235 265 267 255 247 251 266 264 272 269 278 288 303 314 318 319 321 320 322 327 337 346 349 350 354 354 351 359 360 19 43 77 114 154 191 203 191 220 232 254
244 230 232 237 227 245 250 275 260 246 244 242 245 252 264 287 306 315 318 319 321 318 321 326 336 349 351 353 359 358 359 5 5 14 30 42 70 84 97 143 201 215 263 266
Wind_Speed_850mb
7 17 27 5 6 18 22 25 27 25 17 18 30 38 39 31 23 10 9 14 19 28 33 35 39 40 42 44 48 50 50 53 57 61 58 65 80 99 93 89 86 83 82 78
20 27 12 1 14 20 23 26 29 21 9 26 37 37 38 22 16 10 11 12 19 29 34 38 42 44 45 47 49 48 49 52 55 55 60 60 80 97 116 106 99 94 86 82
21 13 13 10 21 22 25 23 23 26 32 43 36 44 24 17 17 21 17 12 22 29 37 44 50 50 48 48 49 50 50 52 55 59 62 73 78 98 101 113 96 96 95 86
21 15 12 19 24 13 23 6 21 29 24 18 13 15 24 36 29 28 20 15 22 29 39 52 54 53 54 51 50 50 51 51 51 56 52 60 86 98 97 116 98 93 94 88
9 14 21 23 21 3 21 21 31 31 32 29 35 18 29 23 29 29 7 13 21 30 42 58 57 55 55 52 51 50 51 49 49 54 63 64 83 103 89 96 101 90 87 88
30 2 15 24 6 20 23 32 38 32 19 17 29 20 18 9 7 5 5 15 25 38 53 63 55 56 55 53 50 53 53 49 53 52 64 63 82 95 86 77 98 88 81 85
28 26 17 13 23 24 23 25 9 9 17 18 11 15 31 15 15 5 8 18 31 47 56 55 58 62 57 51 52 54 52 53 53 55 68 61 66 85 93 87 95 90 85 77
17 22 29 22 19 14 14 11 9 10 14 23 37 18 9 12 15 6 8 19 36 49 58 60 61 60 58 52 53 55 56 54 51 58 64 60 47 72 93 96 68 72 82 84
9 13 19 10 12 11 12 11 18 12 28 21 21 28 27 25 11 19 24 31 45 55 58 61 62 56 50 53 55 55 57 55 52 52 56 55 52 43 69 94 88 64 79 89
5 11 22 16 13 21 21 12 7 7 10 16 20 33 17 11 10 19 25 43 47 56 57 58 58 58 58 51 53 53 54 55 52 48 49 55 48 39 60 53 65 97 76 78
6 9 17 15 23 20 15 19 13 7 14 10 15 10 8 16 13 21 29 46 43 57 56 57 61 62 58 55 52 55 52 51 51 47 48 51 47 41 43 61 64 82 79 71
16 13 15 26 9 6 21 26 24 11 10 15 18 28 23 5 8 30 36 47 51 55 56 55 58 62 57 52 54 52 51 50 49 49 48 46 47 40 43 56 53 63 65 75
17 12 8 13 13 15 18 24 25 14 16 31 22 16 11 18 28 38 48 43 50 55 54 56 59 60 58 54 56 52 51 51 50 49 46 47 43 42 38 47 52 50 60 71
6 16 19 15 9 19 16 25 33 31 23 32 41 49 46 46 43 42 54 48 51 54 53 54 61 58 59 58 55 52 51 52 51 50 48 43 44 42 38 42 52 37 64 77
25 19 28 36 38 37 38 40 40 44 46 41 48 53 51 47 36 39 45 50 50 53 53 56 62 59 61 60 55 52 53 53 50 50 49 46 43 40 41 45 47 52 47 58
31 19 21 34 35 37 46 44 47 50 49 52 52 51 38 27 23 40 46 46 49 50 50 56 59 58 63 62 61 56 54 53 52 50 50 47 41 39 34 45 44 36 34 68
35 27 20 29 27 30 29 35 39 44 40 35 37 36 30 34 33 37 42 44 40 43 51 57 58 56 66 65 61 59 56 54 55 51 49 46 43 37 33 32 44 25 56 57
31 35 18 18 23 25 10 2 9 17 23 25 29 31 30 31 35 37 40 27 35 46 52 54 54 60 65 62 66 62 56 55 52 52 48 43 40 38 32 29 33 28 27 37
35 29 8 11 19 34 32 16 27 6 16 24 25 19 23 29 31 30 3 22 41 48 49 50 50 61 63 63 62 62 62 53 51 49 48 41 37 38 31 25 22 29 19 55
42 35 19 17 11 12 3 7 9 4 17 12 4 14 21 21 19 19 35 40 43 44 46 45 48 63 65 61 60 61 62 59 54 49 48 42 37 36 35 23 18 24 20 24
24 27 32 27 20 21 22 7 14 8 4 5 18 27 26 18 20 34 37 41 40 44 47 40 51 65 62 59 58 60 60 59 62 55 49 45 37 35 33 27 14 15 19 4
23 18 14 24 18 30 28 26 13 4 7 14 23 27 26 24 24 27 33 36 39 43 44 43 56 64 62 60 59 62 62 60 59 45 40 34 31 30 27 20 18 11 10 8
17 20 18 21 15 16 16 24 37 11 14 20 24 25 22 20 22 28 32 34 36 39 38 39 56 63 62 63 59 60 60 59 54 32 22 11 17 23 24 25 14 17 15 3
32 32 23 20 23 30 21 34 33 28 29 28 24 21 17 19 23 27 29 32 35 33 36 37 55 61 63 65 62 57 58 56 44 27 23 6 9 13 8 12 11 28 22 20
26 19 28 33 28 24 27 28 35 36 29 22 18 15 16 18 20 23 28 30 31 30 32 33 50 58 60 61 64 59 56 54 45 33 22 19 16 19 16 23 20 29 28 35
32 26 23 16 19 21 30 18 16 17 21 18 16 14 13 14 18 21 25 27 25 28 29 31 44 54 57 59 62 61 54 51 46 39 28 23 17 17 10 12 10 43 31 28
Wind_Direction_850mb
245 273 235 124 20 304 289 274 273 272 292 299 270 285 281 278 272 237 285 318 328 329 329 328 323 314 305 301 302 302 296 294 291 283 274 268 252 238 216 213 210 212 222 208
236 238 88 18 285 275 265 268 270 301 232 292 288 277 277 252 215 230 264 298 318 321 324 324 324 323 309 299 298 301 300 296 293 284 276 264 259 248 223 207 209 205 213 207
268 15 98 254 273 250 255 274 295 306 304 278 268 273 216 182 215 211 246 288 315 322 324 323 322 318 314 303 297 294 299 295 296 289 276 268 255 253 241 208 207 204 210 210
266 148 221 270 264 256 276 50 295 291 296 295 311 297 203 197 201 226 221 276 319 321 322 323 318 316 313 306 298 294 296 299 298 297 290 273 261 246 240 211 202 203 207 208
66 214 252 259 261 141 276 323 290 281 277 281 268 236 271 161 223 229 195 311 307 315 322 325 319 314 310 305 300 296 293 302 299 299 287 271 252 252 243 225 196 200 202 211
268 34 269 257 294 249 290 279 272 257 256 261 254 239 281 288 220 43 292 292 308 315 320 321 317 314 308 307 305 303 295 296 303 301 301 277 256 249 239 223 213 203 205 209
199 223 209 241 256 216 234 281 308 259 196 235 117 256 255 266 176 257 308 304 317 313 323 321 318 316 312 307 309 306 302 300 301 312 306 298 262 246 245 232 213 195 206 206
247 188 194 186 248 316 293 305 277 269 271 303 325 272 262 69 105 176 260 286 305 321 324 320 318 316 312 313 311 310 310 307 310 314 313 308 282 240 245 242 223 200 203 209
260 224 141 206 234 245 129 261 29 304 266 253 239 254 198 135 183 229 256 312 320 330 321 323 322 318 319 314 313 311 311 310 311 312 314 317 309 257 235 244 240 221 218 220
155 264 191 161 229 232 255 25 234 214 277 293 293 301 303 169 255 357 323 326 323 323 324 325 324 323 319 317 313 312 308 308 307 310 313 315 317 284 236 232 246 236 220 215
192 208 149 175 213 234 179 226 227 270 269 279 302 278 74 323 349 311 323 316 327 325 322 325 326 323 319 320 315 313 310 308 307 309 311 316 321 302 251 230 227 240 237 224
205 196 251 233 148 261 272 268 186 221 246 250 288 278 289 333 262 307 311 322 331 321 323 326 323 325 323 318 320 314 311 310 308 307 307 312 312 312 271 243 234 234 232 239
156 219 252 211 193 213 238 228 240 230 264 258 276 265 144 226 266 297 324 334 325 320 325 325 327 323 323 320 320 317 315 312 307 305 303 306 309 308 291 263 245 242 240 239
163 233 231 245 300 331 249 226 232 211 233 256 255 274 284 299 310 324 318 324 318 318 323 327 326 323 322 322 318 317 315 315 310 304 300 296 299 302 304 282 253 252 249 247
217 246 249 257 263 269 267 261 257 250 231 236 267 279 286 286 304 307 313 313 319 318 322 325 323 321 324 322 319 318 316 315 314 306 297 293 293 299 306 297 273 236 247 243
203 254 256 270 272 270 270 266 262 256 256 262 267 273 291 340 306 308 312 322 314 317 322 321 321 322 324 322 318 316 317 315 314 306 297 293 287 289 293 299 288 252 244 216
221 230 250 271 273 279 275 265 269 258 253 259 269 289 320 304 304 319 323 314 317 321 319 319 323 324 323 319 317 314 315 314 310 304 297 290 287 281 283 289 295 278 229 220
213 227 224 269 299 261 231 220 302 302 278 277 273 283 295 304 317 321 307 321 319 319 320 320 321 323 323 318 317 317 316 313 310 302 297 287 279 273 277 283 295 293 263 220
219 237 206 230 249 281 301 291 219 263 279 279 273 286 310 309 319 300 344 327 322 319 317 319 319 324 322 322 320 317 318 314 310 302 295 286 273 267 270 267 283 284 281 217
215 213 218 230 240 244 270 122 71 314 273 145 161 298 301 314 293 296 319 320 317 317 319 322 322 325 332 326 325 320 320 319 316 306 292 284 264 257 254 258 268 299 328 222
203 199 212 224 237 260 246 213 146 240 57 154 310 311 303 297 283 297 308 312 313 318 321 323 328 332 336 332 331 325 323 325 317 308 292 277 245 250 248 238 225 281 293 34
175 184 208 230 229 248 232 166 206 239 239 299 306 308 303 301 297 301 303 310 318 321 322 323 328 336 340 341 336 332 335 332 328 318 296 267 231 241 233 228 234 240 283 306
194 203 194 197 210 238 230 187 219 241 281 298 303 307 301 294 297 299 313 316 320 321 322 323 332 338 343 346 344 340 340 342 339 334 327 247 216 229 224 188 215 231 271 308
222 191 226 222 234 247 210 227 247 251 270 286 291 288 284 287 296 309 314 320 320 322 322 326 336 343 345 348 349 349 347 352 351 3 12 148 190 196 199 205 211 229 268 293
235 202 227 243 235 265 267 255 247 251 266 264 272 269 278 288 303 314 318 319 321 320 322 327 337 346 349 350 354 354 351 359 360 19 43 77 114 154 191 203 191 220 232 254
244 230 232 237 227 245 250 275 260 246 244 242 245 252 264 287 306 315 318 319 321 318 321 326 336 349 351 353 359 358 359 5 5 14 30 42 70 84 97 143 201 215 263 266